Regional Weather Roundup
Issued by NWS Kansas City/Pleasant Hill, MO

Home | Current Version | Previous Version | Graphics & Text | Print | Product List | Glossary Off
Versions: 1 2 3 4 5 6 7 8 9 10 11 12 13 14 15 16 17 18 19 20 21 22 23 24 25 26 27

000
ASUS43 KEAX 232010
RWREAX

WEATHER ROUNDUP FOR EASTERN KANSAS AND NORTHWEST MISSOURI
NATIONAL WEATHER SERVICE KANSAS CITY/PLEASANT HILL MO
300 PM CDT SAT JUL 23 2016

KSZ040-057-103>105-MOZ028-029-037-043-232100-
...KANSAS CITY METROPOLITAN AREA...

CITY           SKY/WX    TMP DP  RH WIND       PRES   REMARKS
K.C. INTL      PTSUNNY   91  77  63 S13       29.90F HX 104
K.C. DOWNTOWN  CLOUDY    93  72  50 S13       29.89F HX 101
LEES SUMMIT    MOSUNNY   93  71  48 SW13      29.92F HX 100
OLATHE - IXD   CLOUDY    92  73  53 S10       29.92F HX 100
OLATHE - OJC   CLOUDY    90  74  59 S9        29.92F HX  99
LAWRENCE       PTSUNNY   95  74  50 S15       29.88F HX 105

$$

MOZ001>008-011>017-020>025-030>033-038>040-044>046-053-054-232100-
...NORTHERN AND CENTRAL MISSOURI...

CITY           SKY/WX    TMP DP  RH WIND       PRES   REMARKS
ST. JOSEPH     CLOUDY    93  75  55 S12G21    29.87S HX 104
MOSBY          MOCLDY    91  73  55 S6        29.90S HX 100
WHITEMAN AFB   MOSUNNY   95  76  54 S13       29.92S HX 108
CLINTON        SUNNY     95  75  52 S9        29.93S HX 107
SEDALIA        MOSUNNY   97  75  49 S8        29.95S HX 109
WARSAW         NOT AVBL
CHILLICOTHE      N/A     95  78  58 S10       29.90F HX 111
KIRKSVILLE     MOSUNNY   95  74  50 S13G18    29.93F HX 105

$$

MOZ041-047>049-056>058-063>065-088>090-097-232100-
...EASTERN AND SOUTHERN MISSOURI...

CITY           SKY/WX    TMP DP  RH WIND       PRES   REMARKS
ST. LOUIS INTL MOSUNNY   95  72  47 E8        29.96F HX 103
SPIRIT OF STL  MOSUNNY   94  74  52 SE5       29.94F HX 104
COLUMBIA       SUNNY     94  74  52 S7        29.94F HX 104
JEFFERSON CITY MOSUNNY   96  72  45 S8        29.92F HX 104
ROLLA          MOSUNNY   94  75  54 S5        29.96F HX 105
OSAGE BEACH    MOSUNNY   95  74  50 VRB3      29.96F HX 105
SPRINGFIELD    SUNNY     97  68  38 SW8       29.96F HX 102
BRANSON        MOSUNNY   95  72  46 CALM      29.99F HX 103
JOPLIN         SUNNY     95  72  47 S12G20    29.94F HX 103
WEST PLAINS    MOSUNNY   96  73  47 VRB3      29.99F HX 105

$$

IAZ060-094-KSZ022-034>040-054-083-096-NEZ052-066-093-232100-
...KANSAS...SOUTHEAST NEBRASKA AND IOWA...

CITY           SKY/WX    TMP DP  RH WIND       PRES   REMARKS
TOPEKA         MOSUNNY   95  71  45 S13       29.87F HX 102
MANHATTAN      CLOUDY    99  69  37 S12G20    29.84F HX 105
EMPORIA        PTSUNNY   96  70  42 S17G23    29.89F HX 102
CHANUTE        SUNNY     96  71  44 S12       29.91F HX 103
WICHITA        PTSUNNY  103  62  26 S17G30    29.85F HX 105
OMAHA          PTSUNNY   90  72  55 S16       29.81F HX  97
LINCOLN        CLOUDY    91  71  51 SW10      29.83S HX  97
FALLS CITY     CLOUDY    91  75  59 S10       29.85S HX 101
LAMONI         CLOUDY    89  79  72 S9        29.89R HX 104
DES MOINES     CLOUDY    89  79  72 S8        29.84F HX 104

$$





USA.gov is the U.S. government's official web portal to all federal, state and local government web resources and services.